Location: Unspecified
(0.0000°N, 0.0000°E)
Time: 19:52:21
(UTC+00:00)

deb Briz - Pass Details

Date: 19 February 2026
Orbit: 1683 x 2323 km, 64.7° (Epoch: 11 March)

Event Time Altitude Azimuth Distance (km) Brightness Sun altitude
Rises 04:30:29 0° 11° (N) 5,268 ? -25.3°
Reaches altitude 10° 04:35:53 10° 32° (NNE) 4,155 ? -24.0°
Maximum altitude 04:41:22 16° 65° (ENE) 3,622 ? -22.6°
Drops below altitude 10° 04:46:38 10° 98° (E) 3,989 ? -21.4°
Sets 04:51:31 0° 119° (ESE) 4,943 ? -20.2°
